Barnwell, SC

10:49 PM EST on November 21, 2019 (GMT -0500)
Barnwell County

Weather History for KBNL - September, 2019

Change the Weather History Date:

Saturday, September 14, 2019

  Actual Average (WUND) Record (WUND)
Temperature  
Mean Temperature 79 °F -  
Max Temperature 87 °F - - (-1)
Min Temperature 71 °F - - (-1)
Cooling Degree Days 14    
Growing Degree Days 29 (Base 50)    
Moisture  
Dew Point 71 °F    
Average Humidity 81    
Maximum Humidity 100    
Minimum Humidity 55    
Precipitation  
Precipitation 0.00 in - - ()
Sea Level Pressure  
Sea Level Pressure 30.19 in    
Wind  
Wind Speed 6 mph (NE)    
Max Wind Speed 14 mph    
Max Gust Speed 15 mph    
Averages and records for this station are not official NWS values.
T = Trace of Precipitation, MM = Missing Value Source: NWS Daily Summary

Daily Weather History Graph

Daily Weather History Graph

Search for Another Location

Airport or City:

Astronomy

Sep. 14, 2019 Rise Set
Actual Time 7:08 AM EDT 7:33 PM EDT
Civil Twilight 6:43 AM EDT 7:58 PM EDT
Nautical Twilight 6:14 AM EDT 8:27 PM EDT
Astronomical Twilight 5:44 AM EDT 8:57 PM EDT
Moon 8:13 PM EDT (9/14) 7:22 AM EDT (9/14)
Length of Visible Light 13h 15m
Length of Day
12h 25m
Full, 100% of the Moon is Illuminated
Sep 14
Full
Sep 21
Last Quarter
Sep 28
New
Oct 5
First Quarter
Oct 13
Full

Hourly Weather History & Observations

Time (EDT) Temp. Heat Index Dew Point Humidity Pressure Visibility Wind Dir Wind Speed Gust Speed Precip Events Conditions
12:35 AM 71.6 °F - 69.8 °F 94% 30.22 in - North 5.8 mph - N/A   Unknown
12:55 AM 71.6 °F - 69.8 °F 94% 30.21 in - North 4.6 mph - N/A   Overcast
1:15 AM 71.6 °F - 69.8 °F 94% 30.21 in - NNE 5.8 mph - N/A   Mostly Cloudy
1:35 AM 71.6 °F - 69.8 °F 94% 30.21 in - NE 6.9 mph - N/A   Unknown
1:55 AM 71.6 °F - 69.8 °F 94% 30.21 in - NE 5.8 mph - N/A   Overcast
2:15 AM 71.6 °F - 69.8 °F 94% 30.20 in - NE 5.8 mph - N/A   Unknown
2:35 AM 71.6 °F - 69.8 °F 94% 30.19 in - NE 5.8 mph - N/A   Unknown
2:55 AM 71.6 °F - 69.8 °F 94% 30.18 in - ENE 4.6 mph - N/A   Unknown
3:15 AM 71.6 °F - 69.8 °F 94% 30.18 in - ENE 5.8 mph - N/A   Mostly Cloudy
3:35 AM 71.6 °F - 71.6 °F 100% 30.17 in - NE 5.8 mph - N/A   Unknown
3:55 AM 73.4 °F - 71.6 °F 94% 30.17 in - ENE 5.8 mph - N/A   Overcast
4:15 AM 73.4 °F - 71.6 °F 94% 30.17 in - ENE 8.1 mph - N/A   Overcast
4:35 AM 73.4 °F - 71.6 °F 94% 30.17 in - NE 8.1 mph - N/A   Overcast
4:55 AM 73.4 °F - 71.6 °F 94% 30.17 in - NE 8.1 mph - N/A   Overcast
5:15 AM 73.4 °F - 71.6 °F 94% 30.18 in - NE 6.9 mph - N/A   Overcast
5:55 AM 73.4 °F - 71.6 °F 94% 30.19 in - NE 4.6 mph - N/A   Unknown
6:15 AM 73.4 °F - 71.6 °F 94% 30.19 in - NE 8.1 mph - N/A   Overcast
6:35 AM 73.4 °F - 71.6 °F 94% 30.19 in - NE 5.8 mph - N/A   Unknown
6:55 AM 73.4 °F - 71.6 °F 94% 30.20 in - NE 4.6 mph - N/A   Overcast
7:15 AM 73.4 °F - 71.6 °F 94% 30.20 in - NE 5.8 mph - N/A   Mostly Cloudy
7:35 AM 73.4 °F - 71.6 °F 94% 30.20 in - NE 5.8 mph - N/A   Unknown
7:55 AM 73.4 °F - 71.6 °F 94% 30.21 in - ENE 5.8 mph - N/A   Overcast
8:15 AM 73.4 °F - 71.6 °F 94% 30.21 in - NE 6.9 mph - N/A   Mostly Cloudy
8:35 AM 75.2 °F - 71.6 °F 89% 30.21 in - ENE 9.2 mph - N/A   Mostly Cloudy
8:55 AM 75.2 °F - 71.6 °F 89% 30.22 in - ENE 5.8 mph - N/A   Unknown
9:15 AM 75.2 °F - 71.6 °F 89% 30.23 in - NE 8.1 mph 15.0 mph N/A   Overcast
9:55 AM 75.2 °F - 71.6 °F 89% 30.24 in - NE 5.8 mph - N/A   Overcast
10:15 AM 75.2 °F - 71.6 °F 89% 30.25 in - NE 8.1 mph - N/A   Overcast
10:35 AM 75.2 °F - 71.6 °F 89% 30.25 in - NE 9.2 mph - N/A   Overcast
11:15 AM 77.0 °F - 71.6 °F 83% 30.24 in - ENE 11.5 mph - N/A   Overcast
11:35 AM 77.0 °F - 71.6 °F 83% 30.24 in - NNE 9.2 mph - N/A   Overcast
11:55 AM 78.8 °F - 71.6 °F 78% 30.23 in - NNE 10.4 mph - N/A   Overcast
12:15 PM 78.8 °F - 71.6 °F 78% 30.23 in - ENE 8.1 mph - N/A   Overcast
12:35 PM 78.8 °F - 71.6 °F 78% 30.23 in - NE 6.9 mph - N/A   Overcast
12:55 PM 80.6 °F 84.6 °F 71.6 °F 74% 30.23 in - ENE 10.4 mph - N/A   Overcast
1:15 PM 82.4 °F 87.2 °F 71.6 °F 70% 30.22 in - East 9.2 mph - N/A   Overcast
1:35 PM 82.4 °F 87.2 °F 71.6 °F 70% 30.21 in - NE 9.2 mph - N/A   Overcast
1:55 PM 82.4 °F 87.2 °F 71.6 °F 70% 30.21 in - NE 10.4 mph - N/A   Overcast
2:15 PM 82.4 °F 87.2 °F 71.6 °F 70% 30.20 in - NE 8.1 mph - N/A   Overcast
2:35 PM 82.4 °F 86.3 °F 69.8 °F 66% 30.19 in - ENE 8.1 mph - N/A   Overcast
2:55 PM 86.0 °F 90.4 °F 69.8 °F 58% 30.19 in - East 10.4 mph - N/A   Mostly Cloudy
3:35 PM 86.0 °F 90.4 °F 69.8 °F 58% 30.17 in - ENE 10.4 mph - N/A   Mostly Cloudy
3:55 PM 87.8 °F 92.6 °F 69.8 °F 55% 30.16 in - ENE 11.5 mph - N/A   Scattered Clouds
4:15 PM 86.0 °F 90.4 °F 69.8 °F 58% 30.16 in - ENE 9.2 mph 15.0 mph N/A   Scattered Clouds
4:35 PM 86.0 °F 90.4 °F 69.8 °F 58% 30.15 in - ENE 13.8 mph - N/A   Mostly Cloudy
4:55 PM 86.0 °F 90.4 °F 69.8 °F 58% 30.15 in - ENE 6.9 mph - N/A   Mostly Cloudy
5:15 PM 87.8 °F 92.6 °F 69.8 °F 55% 30.15 in - NE 8.1 mph - N/A   Scattered Clouds
5:35 PM 86.0 °F 90.4 °F 69.8 °F 58% 30.14 in - ENE 6.9 mph - N/A   Scattered Clouds
5:55 PM 86.0 °F 90.4 °F 69.8 °F 58% 30.14 in - ENE 9.2 mph - N/A   Partly Cloudy
6:15 PM 86.0 °F 90.4 °F 69.8 °F 58% 30.14 in - ENE 6.9 mph - N/A   Clear
6:35 PM 86.0 °F 90.4 °F 69.8 °F 58% 30.13 in - ENE 6.9 mph - N/A   Clear
6:55 PM 84.2 °F 88.4 °F 69.8 °F 62% 30.14 in - ENE 8.1 mph - N/A   Clear
7:15 PM 84.2 °F 88.4 °F 69.8 °F 62% 30.14 in - NE 6.9 mph - N/A   Clear
7:35 PM 82.4 °F 86.3 °F 69.8 °F 66% 30.15 in - ENE 4.6 mph - N/A   Clear
7:55 PM 80.6 °F 83.9 °F 69.8 °F 70% 30.15 in - NNE 4.6 mph - N/A   Partly Cloudy
8:15 PM 80.6 °F 83.9 °F 69.8 °F 70% 30.15 in - Calm Calm - N/A   Partly Cloudy
9:35 PM 78.8 °F - 71.6 °F 78% 30.16 in - ESE 4.6 mph - N/A   Overcast
9:55 PM 78.8 °F - 71.6 °F 78% 30.16 in - Calm Calm - N/A   Overcast
10:15 PM 75.2 °F - 71.6 °F 89% 30.17 in - Calm Calm - N/A   Overcast
10:35 PM 75.2 °F - 71.6 °F 89% 30.17 in - Calm Calm - N/A   Overcast
10:55 PM 75.2 °F - 71.6 °F 89% 30.16 in - Calm Calm - N/A   Mostly Cloudy
11:15 PM 73.4 °F - 71.6 °F 94% 30.15 in - Calm Calm - N/A   Unknown
11:35 PM 73.4 °F - 71.6 °F 94% 30.15 in - Calm Calm - N/A   Unknown
11:55 PM 73.4 °F - 69.8 °F 88% 30.14 in - Calm Calm - N/A   Unknown